{"data":{"norad_id":64107,"epoch":"2026-09-19T11:37:57.613440Z","epoch_age_seconds":228145,"freshness":"STALE","line1":"1 64107U 25110M   26262.48469460 -.00004268  00000+0 -12575-3 0  9990","line2":"2 64107  53.1589 205.1680 0000345 103.8931 256.2109 15.31726230 75579","mean_motion":15.3172623,"eccentricity":3.45e-5,"inclination_deg":53.1589,"raan_deg":205.168,"arg_perigee_deg":103.8931,"mean_anomaly_deg":256.2109,"bstar":-0.00012575,"rev_number":7557,"period_min":94.011578035064,"perigee_km":470.42552251754,"apogee_km":470.89808963516,"semimajor_km":6848.7988060764,"source":"CELESTRAK","updated_at":"2026-09-21T09:00:35.228750Z"}}